Location: Unspecified
(44.4377°N, 88.0525°W)
Time: 12:12:15
(UTC-05:00)

Cosmos 2058 - Visible Passes

Search period start: 26 July 2014 00:00
Search period end: 05 August 2014 00:00
Orbit: 572 x 593 km, 82.5° (Epoch: 26 July)

Date Brightness Start Highest point End Pass type
(mag) Time Alt. Az. Time Alt. Az. Time Alt. Az.
26 Jul 3.1 04:07:30 10° N 04:11:45 80° E 04:15:57 10° S visible
27 Jul 6.0 02:38:50 10° NE 02:39:58 11° ENE 02:41:07 10° E visible
27 Jul 2.9 04:13:24 10° NNW 04:17:38 73° W 04:21:49 10° S visible
28 Jul 5.7 02:43:35 10° NNE 02:46:03 15° ENE 02:48:30 10° ESE visible
28 Jul 3.2 04:19:23 10° NNW 04:23:30 50° W 04:27:33 10° S visible
29 Jul 5.4 02:48:55 10° NNE 02:52:06 20° ENE 02:55:14 10° ESE visible
29 Jul 3.6 04:25:27 10° NNW 04:29:19 35° W 04:32:59 11° SSW visible
30 Jul 4.8 02:54:28 10° NNE 02:58:06 27° ENE 03:01:42 10° SE visible
30 Jul 4.1 04:31:37 10° NNW 04:35:07 26° W 04:38:06 12° SW visible
31 Jul 4.2 03:00:07 10° N 03:04:04 37° ENE 03:06:56 16° SE visible
31 Jul 4.5 04:37:57 10° NW 04:40:53 19° W 04:43:17 12° SW visible
01 Aug 3.6 03:05:52 10° N 03:10:01 53° ENE 03:12:10 26° SE visible
01 Aug 4.9 04:44:34 10° NW 04:46:37 13° W 04:48:31 10° WSW visible
02 Aug 3.0 03:11:42 10° N 03:15:56 76° E 03:17:28 38° SSE visible
03 Aug 5.9 01:43:25 10° NE 01:44:07 10° ENE 01:44:49 10° ENE visible
03 Aug 2.8 03:17:35 10° NNW 03:21:48 76° W 03:22:48 51° SSW visible
04 Aug 5.5 01:47:53 10° NE 01:50:11 14° ENE 01:51:48 12° E visible
04 Aug 3.1 03:23:33 10° NNW 03:27:39 52° W 03:28:10 49° WSW visible
